Location: Ottawa
(45.4167°N, 75.7000°W)
Time: 08:19:45
(UTC-05:00)

Envisat - Pass Details

Date: 11 October 2017
Orbit: 764 x 766 km, 98.2° (Epoch: 14 December)

Event Time Altitude Azimuth Distance (km) Brightness Sun altitude
Exits shadow 20:30:46 58° 116° (ESE) 895 2.9 -22.9°
Maximum altitude 20:31:30 66° 73° (ENE) 840 2.9 -23.1°
Drops below altitude 10° 20:36:33 10° 352° (N) 2,316 5.7 -23.9°
Sets 20:38:53 0° 350° (N) 3,246 6.6 -24.3°
